Preston, Minnesota, United States (55965)
Lat: 43.67N, Lon: 92.08W
Wx Zone: MNZ095
Local Info
Past Weather Observations for Tuesday, November 18, 2014

NOTE: This archive is for the closest National Weather Service station to Preston. Information may differ from the station used for current weather conditions.

Click here for Long-term Archive

Time Weather Temperature Dewpoint Humidity Pressure Winds Precip Visibility
23:55
Overcast
16°F / -9°C 10°F / -12°C 79% 29.8 in
(1009 mb)
S 10.4 mph
(S 17 kph)
- 10SM
23:35
Overcast
16°F / -9°C 10°F / -12°C 79% 29.8 in
(1009 mb)
S 11.5 mph
(S 19 kph)
- 10SM
23:16
Overcast
16°F / -9°C 10°F / -12°C 79% 29.83 in
(1010 mb)
S 11.5 mph
(S 19 kph)
- 10SM
22:55
Overcast
16°F / -9°C 10°F / -12°C 79% 29.83 in
(1010 mb)
S 11.5 mph
(S 19 kph)
- 10SM
22:35
Overcast
16°F / -9°C 10°F / -12°C 79% 29.83 in
(1010 mb)
S 11.5 mph
(S 19 kph)
- 10SM
22:15
Overcast
16°F / -9°C 10°F / -12°C 79% 29.86 in
(1011 mb)
S 11.5 mph
(S 19 kph)
- 10SM
21:55
Overcast
16°F / -9°C 10°F / -12°C 79% 29.89 in
(1012 mb)
S 11.5 mph
(S 19 kph)
- 10SM
21:35
Overcast
16°F / -9°C 10°F / -12°C 79% 29.89 in
(1012 mb)
S 11.5 mph
(S 19 kph)
- 10SM
21:15
Overcast
16°F / -9°C 10°F / -12°C 79% 29.89 in
(1012 mb)
S 11.5 mph
(S 19 kph)
- 10SM
20:55
Overcast
14°F / -10°C 10°F / -12°C 85% 29.89 in
(1012 mb)
S 10.4 mph
(S 17 kph)
- 10SM
20:35
Mostly Cloudy
14°F / -10°C 9°F / -13°C 79% 29.92 in
(1013 mb)
S 10.4 mph
(S 17 kph)
- 10SM
20:15
Mostly Cloudy
14°F / -10°C 9°F / -13°C 79% 29.92 in
(1013 mb)
SSE 8.1 mph
(SSE 13 kph)
- 10SM
19:55
Overcast
16°F / -9°C 9°F / -13°C 73% 29.92 in
(1013 mb)
SW 8.1 mph
(SW 13 kph)
- 10SM
19:35
Overcast
16°F / -9°C 9°F / -13°C 73% 29.92 in
(1013 mb)
SSE 9.2 mph
(SSE 15 kph)
- 10SM
19:15
Overcast
16°F / -9°C 9°F / -13°C 73% 29.95 in
(1014 mb)
SSE 8.1 mph
(SSE 13 kph)
- 10SM
18:55
Overcast
16°F / -9°C 9°F / -13°C 73% 29.95 in
(1014 mb)
SW 11.5 mph
(SW 19 kph)
- 10SM
18:35
Overcast
14°F / -10°C 9°F / -13°C 79% 29.95 in
(1014 mb)
SSE 6.9 mph
(SSE 11 kph)
- 10SM
18:15
Overcast
14°F / -10°C 9°F / -13°C 79% 29.98 in
(1015 mb)
SW 6.9 mph
(SW 11 kph)
- 10SM
17:55
Overcast
14°F / -10°C 9°F / -13°C 79% 29.98 in
(1015 mb)
SSE 5.8 mph
(SSE 9 kph)
- 10SM
17:35
Overcast
14°F / -10°C 9°F / -13°C 79% 29.98 in
(1015 mb)
SSE 4.6 mph
(SSE 7 kph)
- 10SM
17:15
Overcast
14°F / -10°C 7°F / -14°C 73% 29.98 in
(1015 mb)
SW 5.8 mph
(SW 9 kph)
- 10SM
16:55
Overcast
14°F / -10°C 7°F / -14°C 73% 29.98 in
(1015 mb)
SW 6.9 mph
(SW 11 kph)
- 10SM
16:33
Overcast
14°F / -10°C 7°F / -14°C 73% 29.98 in
(1015 mb)
SSW 6.9 mph
(SSW 11 kph)
- 10SM
16:15
Overcast
14°F / -10°C 7°F / -14°C 73% 29.98 in
(1015 mb)
SSW 6.9 mph
(SSW 11 kph)
- 10SM
15:55
Overcast
14°F / -10°C 5°F / -15°C 67% 29.98 in
(1015 mb)
SSW 10.4 mph
(SSW 17 kph)
- 10SM
15:36
Overcast
14°F / -10°C 5°F / -15°C 67% 29.98 in
(1015 mb)
SSW 9.2 mph
(SSW 15 kph)
- 10SM
15:15
Overcast
14°F / -10°C 5°F / -15°C 67% 29.98 in
(1015 mb)
W 12.7 mph
(W 20 kph)
- 10SM
14:55
Mostly Cloudy
14°F / -10°C 5°F / -15°C 67% 30.01 in
(1016 mb)
W 10.4 mph
(W 17 kph)
- 10SM
14:36
Partly Cloudy
14°F / -10°C 3°F / -16°C 62% 30.01 in
(1016 mb)
W 9.2 mph
(W 15 kph)
- 10SM
14:15
Overcast
16°F / -9°C 3°F / -16°C 57% 30.01 in
(1016 mb)
W 12.7 mph
(W 20 kph)
- 10SM
13:56
Overcast
14°F / -10°C 1°F / -17°C 57% 30.01 in
(1016 mb)
NW 12.7 mph
(NW 20 kph)
- 10SM
13:35
Overcast
14°F / -10°C 5°F / -15°C 67% 30.01 in
(1016 mb)
W 15 mph
(W 24 kph)
- 10SM
13:16
Overcast
14°F / -10°C 7°F / -14°C 73% 30.01 in
(1016 mb)
W 16.1 mph
(W 26 kph)
- 10SM
12:55
Overcast
14°F / -10°C 5°F / -15°C 67% 30.01 in
(1016 mb)
W 12.7 mph
(W 20 kph)
- 10SM
12:35
Overcast
14°F / -10°C 5°F / -15°C 67% 30.01 in
(1016 mb)
WNW 13.8 mph
(WNW 22 kph)
- 10SM
12:15
Mostly Cloudy
14°F / -10°C 5°F / -15°C 67% 30.01 in
(1016 mb)
W 16.1 mph
(W 26 kph)
- 10SM
11:55
Mostly Cloudy
14°F / -10°C 5°F / -15°C 67% 30.01 in
(1016 mb)
NW 17.3 mph
(NW 28 kph)
- 10SM
11:35
Mostly Cloudy
12°F / -11°C 5°F / -15°C 73% 30.04 in
(1017 mb)
WNW 16.1 mph
(WNW 26 kph)
- 10SM
11:15
Mostly Cloudy
Hazy
12°F / -11°C 5°F / -15°C 73% 30.04 in
(1017 mb)
WNW 19.6 mph
(WNW 32 kph)
- 5SM
10:55
Overcast
12°F / -11°C 3°F / -16°C 67% 30.04 in
(1017 mb)
NW 21.9 mph
(NW 35 kph)
- 7SM
10:36
Overcast
12°F / -11°C 5°F / -15°C 73% 30.04 in
(1017 mb)
NW 19.6 mph
(NW 32 kph)
- 10SM
10:15
Overcast
12°F / -11°C 5°F / -15°C 73% 30.04 in
(1017 mb)
WNW 13.8 mph
(WNW 22 kph)
- 10SM
09:56
Overcast
12°F / -11°C 5°F / -15°C 73% 30.04 in
(1017 mb)
WNW 15 mph
(WNW 24 kph)
- 7SM
09:35
Overcast
12°F / -11°C 5°F / -15°C 73% 30.04 in
(1017 mb)
NW 15 mph
(NW 24 kph)
- 10SM
09:15
Overcast
10°F / -12°C 5°F / -15°C 79% 30.04 in
(1017 mb)
W 15 mph
(W 24 kph)
- 7SM
08:56
Overcast
10°F / -12°C 5°F / -15°C 79% 30.04 in
(1017 mb)
W 16.1 mph
(W 26 kph)
- 10SM
08:35
Overcast
Hazy
9°F / -13°C 5°F / -15°C 85% 30.01 in
(1016 mb)
WNW 15 mph
(WNW 24 kph)
- 5SM
08:15
Overcast
9°F / -13°C 3°F / -16°C 78% 30.01 in
(1016 mb)
W 13.8 mph
(W 22 kph)
- 10SM
07:55
Mostly Cloudy
7°F / -14°C 1°F / -17°C 78% 30.01 in
(1016 mb)
W 11.5 mph
(W 19 kph)
- 10SM
07:35
Partly Cloudy
7°F / -14°C 1°F / -17°C 78% 30.01 in
(1016 mb)
WNW 10.4 mph
(WNW 17 kph)
- 10SM
07:15
Overcast
7°F / -14°C 1°F / -17°C 78% 30.01 in
(1016 mb)
WNW 13.8 mph
(WNW 22 kph)
- 10SM
06:55
Overcast
7°F / -14°C 1°F / -17°C 78% 30.01 in
(1016 mb)
WNW 13.8 mph
(WNW 22 kph)
- 10SM
06:35
Overcast
7°F / -14°C 1°F / -17°C 78% 30.01 in
(1016 mb)
WNW 11.5 mph
(WNW 19 kph)
- 10SM
06:15
Overcast
7°F / -14°C 3°F / -16°C 85% 30.01 in
(1016 mb)
WNW 12.7 mph
(WNW 20 kph)
- 7SM
05:55
Overcast
9°F / -13°C 3°F / -16°C 78% 30.01 in
(1016 mb)
WNW 12.7 mph
(WNW 20 kph)
- 10SM
05:35
Overcast
7°F / -14°C 3°F / -16°C 85% 30.01 in
(1016 mb)
WNW 12.7 mph
(WNW 20 kph)
- 10SM
05:15
Overcast
7°F / -14°C 3°F / -16°C 85% 29.98 in
(1015 mb)
WNW 11.5 mph
(WNW 19 kph)
- 10SM
04:55
Overcast
7°F / -14°C 1°F / -17°C 78% 29.98 in
(1015 mb)
WNW 11.5 mph
(WNW 19 kph)
- 10SM
04:36
Overcast
7°F / -14°C 1°F / -17°C 78% 29.98 in
(1015 mb)
WNW 13.8 mph
(WNW 22 kph)
- 10SM
04:15
Overcast
5°F / -15°C 1°F / -17°C 85% 29.98 in
(1015 mb)
WNW 15 mph
(WNW 24 kph)
- 10SM
03:55
Mostly Cloudy
5°F / -15°C °F / -18°C 78% 29.98 in
(1015 mb)
WNW 12.7 mph
(WNW 20 kph)
- 10SM
03:35
Clear
5°F / -15°C °F / -18°C 78% 29.98 in
(1015 mb)
NW 15 mph
(NW 24 kph)
- 10SM
03:15
Clear
5°F / -15°C °F / -18°C 78% 29.98 in
(1015 mb)
WNW 16.1 mph
(WNW 26 kph)
- 10SM
02:55
Clear
5°F / -15°C °F / -18°C 78% 29.98 in
(1015 mb)
WNW 18.4 mph
(WNW 30 kph)
- 10SM
02:36
Clear
5°F / -15°C °F / -18°C 78% 29.98 in
(1015 mb)
WNW 15 mph
(WNW 24 kph)
- 10SM
02:15
Clear
5°F / -15°C °F / -18°C 78% 29.98 in
(1015 mb)
WNW 16.1 mph
(WNW 26 kph)
- 10SM
01:55
Clear
5°F / -15°C °F / -18°C 78% 29.95 in
(1014 mb)
WNW 13.8 mph
(WNW 22 kph)
- 10SM
01:35
Clear
3°F / -16°C °F / -18°C 85% 29.98 in
(1015 mb)
WNW 13.8 mph
(WNW 22 kph)
- 10SM
01:15
Clear
5°F / -15°C °F / -18°C 78% 29.98 in
(1015 mb)
WNW 12.7 mph
(WNW 20 kph)
- 10SM
00:55
Clear
5°F / -15°C °F / -18°C 78% 29.98 in
(1015 mb)
W 13.8 mph
(W 22 kph)
- 10SM
00:35
Clear
5°F / -15°C 1°F / -17°C 85% 29.98 in
(1015 mb)
W 13.8 mph
(W 22 kph)
- 10SM
00:15
Clear
5°F / -15°C 1°F / -17°C 85% 29.98 in
(1015 mb)
WNW 15 mph
(WNW 24 kph)
- 10SM
Time Weather Temperature Dewpoint Humidity Pressure Winds Precip Visibility


Weather for websites

WeatherForYou.com, LLC is not responsible for any damages or problems caused by this service. Current weather conditions are obtained from the closest station including government and personal stations which may have varying degrees of accuracy. Weather forecasts are derived from the NOAA NDFD. Like all things, this site belongs to Jesus Christ... He just trusts me to maintain it. If you have any questions or comments email webmaster@weatherforyou.com

Copyright © 2014, WeatherForYou.com LLC. All rights reserved.